[[{"header":{"parameterUnit":"m.s-1","parameterCategory":1,"la1":30.2991,"la2":30.254,"lo1":-89.0895,"lo2":-89.0444,"dy":0.0017,"dx":0.0017,"nx":28,"ny":28,"refTime":"2025-07-05T03:00:00:Z","depth":0,"parameterNumber":2,"parameterNumberName":"U-component_of_WINDS"},"data":[0,0,0,0,0,0,0,0,0,0,0,0,0,0,0,0,0,0,0,0,0,0,0,0,0,0,0,0,0,0,0,0,0,0,0,0,0,0,0,0,0,0,0,0,0,0,0,0,0,0,0,0,0,0,0,0,0,0,0.4493,0.4495,0,0.4621,0.4622,0.4624,0.467,0.4669,0.4669,0.4669,0.4799,0.4803,0.4807,0,0,0,0,0,0,0,0,0,0,0,0,0,0.4287,0.4291,0.4493,0.4495,0.4496,0.4621,0.4623,0.4624,0.467,0.4669,0.4669,0.4668,0.4798,0.4802,0.4807,0,0,0,0,0,0,0,0,0,0,0,0,0,0.4392,0.4292,0.4493,0.4534,0.4539,0.462,0.4623,0.4625,0.467,0.4669,0.4669,0.4668,0.4796,0.4802,0.4808,0.4857,0,0,0.4826,0.4828,0,0,0,0,0,0,0,0,0.4386,0.44,0.4526,0.4531,0.4537,0.4629,0.4598,0.4703,0.467,0.462,0.4669,0.4668,0.4743,0.4753,0.4779,0.4863,0.4869,0.4826,0.483,0.4832,0.4834,0,0,0,0,0,0,0,0.4379,0.4394,0.4544,0.4528,0.4535,0.4546,0.456,0.4618,0.4684,0.4625,0.4628,0.4643,0.4746,0.4773,0.4782,0.4871,0.4826,0.4831,0.4835,0.4837,0.5002,0.5003,0,0,0,0,0,0,0.4365,0.4388,0.454,0.4548,0.4458,0.455,0.4566,0.46,0.4683,0.4695,0.4643,0.4644,0.4763,0.4775,0.4787,0.485,0.4832,0.4838,0.4841,0.5001,0.5003,0.5003,0,0,0,0,0,0,0.436,0.4378,0.4535,0.4469,0.449,0.4554,0.4592,0.4603,0.463,0.4697,0.4709,0.4659,0.4763,0.4779,0.4839,0.4855,0.484,0.4846,0.5,0.5002,0.5003,0.4977,0,0,0,0,0,0,0.4354,0.4376,0.4396,0.4469,0.4493,0.4585,0.4593,0.4606,0.464,0.4643,0.4715,0.4727,0.4764,0.483,0.4845,0.4863,0.485,0.4999,0.5001,0.5003,0.4977,0.4978,0.4978,0,0,0,0,0,0.4347,0.4383,0.4397,0.4415,0.4519,0.4586,0.46,0.4642,0.4641,0.4662,0.4705,0.4724,0.4851,0.4836,0.4853,0.4873,0.4998,0.5001,0.5002,0.4977,0.4978,0.4978,0,0,0,0,0,0,0.431,0.4394,0.4409,0.4471,0.4521,0.4594,0.4621,0.4641,0.4693,0.4693,0.4743,0.4759,0.4816,0.4851,0.4833,0.4925,0.4926,0.4931,0.4901,0.4902,0.4902,0.4893,0.4855,0,0,0,0,0,0.431,0.4357,0.4427,0.4475,0.4499,0.4555,0.4586,0.4614,0.4668,0.4689,0.4737,0.4788,0.484,0.4873,0.4924,0.4982,0.4998,0.5004,0.5005,0.5005,0.5009,0.5042,0.5046,0.501,0.501,0.501,0,0,0.4309,0.436,0.4387,0.4469,0.4511,0.4559,0.4573,0.4623,0.4659,0.4697,0.4758,0.4794,0.4855,0.4914,0.4943,0.4945,0.5022,0.5007,0.5007,0.5011,0.5045,0.5048,0.5051,0.5011,0.5011,0.5011,0,0,0.4331,0.4375,0.442,0.4461,0.4525,0.4562,0.4572,0.4642,0.4667,0.4729,0.4758,0.4801,0.4889,0.493,0.4963,0.5,0.502,0.5015,0.5019,0.505,0.5053,0.5056,0.5069,0.5073,0.5019,0.5019,0.5019,0,0.4322,0.4396,0.444,0.4489,0.4524,0.456,0.4605,0.4643,0.472,0.4743,0.4744,0.4854,0.4898,0.4967,0.4976,0.5002,0.5015,0.5008,0.5049,0.5052,0.5056,0.5069,0.5074,0.5018,0.5018,0.5019,0.5019,0,0.4381,0.4432,0.446,0.4533,0.4571,0.4618,0.4668,0.4702,0.4726,0.4762,0.4824,0.4877,0.4939,0.4958,0.4982,0.5031,0.503,0.5039,0.5041,0.5057,0.5071,0.5076,0.5017,0.5017,0.5018,0.5018,0,0,0.4386,0.4482,0.4492,0.4525,0.4598,0.4637,0.4685,0.4746,0.4773,0.4825,0.4866,0.4939,0.4948,0.4985,0.5014,0.5041,0.5068,0.5048,0.505,0.505,0.5125,0.5118,0.5123,0.5081,0.5082,0.5083,0.512,0,0.4418,0.4506,0.4546,0.4616,0.4663,0.4697,0.4739,0.4787,0.4822,0.4867,0.4906,0.4957,0.4965,0.4987,0.5016,0.5058,0.5083,0.5056,0.512,0.5122,0.5104,0.513,0.5123,0.5155,0.5125,0.5126,0.5127,0,0.4468,0.452,0.4594,0.466,0.4681,0.4718,0.4777,0.4819,0.4874,0.4898,0.4939,0.4967,0.5018,0.5015,0.5086,0.5066,0.5095,0.5119,0.5121,0.513,0.5126,0.5139,0.5166,0.5171,0.5135,0.5135,0.5134,0,0.4464,0.4552,0.4608,0.4635,0.4714,0.4739,0.4773,0.4827,0.4861,0.4912,0.4935,0.4991,0.5021,0.5064,0.5106,0.51,0.5173,0.5174,0.5194,0.5193,0.5209,0.5207,0.5241,0.5226,0.5226,0.5225,0.5225,0,0.4497,0.4541,0.4607,0.4641,0.4691,0.4737,0.4785,0.4822,0.487,0.4911,0.4944,0.4982,0.5035,0.508,0.5113,0.5167,0.5181,0.5201,0.5209,0.5199,0.5196,0.5218,0.5218,0.5227,0.5226,0.5226,0.5226,0,0.4501,0.4547,0.461,0.4679,0.4698,0.4732,0.4791,0.4825,0.4861,0.4913,0.4928,0.4985,0.504,0.5085,0.5157,0.5179,0.5235,0.5245,0.5216,0.5221,0.5239,0.5237,0.5289,0.5298,0.5275,0.5275,0.5276,0,0.4519,0.4554,0.4627,0.4657,0.469,0.4739,0.4773,0.4819,0.4854,0.4919,0.4945,0.5002,0.505,0.5135,0.5183,0.5237,0.5249,0.5264,0.5258,0.5245,0.525,0.5248,0.5251,0.5264,0.5264,0.5264,0.5264,0,0.4546,0.4567,0.4616,0.4673,0.4713,0.476,0.4807,0.483,0.4885,0.4922,0.4978,0.5015,0.5088,0.5144,0.5203,0.5238,0.526,0.5265,0.5273,0.5263,0.5245,0.5255,0.5218,0.5264,0.5264,0.5264,0.5264,0.5264,0.4558,0.4591,0.4647,0.47,0.4741,0.4784,0.482,0.486,0.4908,0.4971,0.4995,0.5052,0.5106,0.5189,0.5223,0.5268,0.5272,0.5283,0.5286,0.5288,0.5286,0.5237,0.5279,0.5279,0.528,0.528,0.528,0,0.4587,0.4625,0.4673,0.4739,0.4781,0.4798,0.4851,0.4885,0.4935,0.4983,0.503,0.5094,0.5148,0.5199,0.5256,0.5282,0.5294,0.5296,0.5295,0.5302,0.528,0.5268,0.5285,0.5285,0.5285,0.5285,0.5285,0.5285,0.4607,0.4663,0.469,0.4766,0.4804,0.486,0.4889,0.493,0.4969,0.5039,0.5084,0.5117,0.5167,0.5227,0.5278,0.5291,0.5311,0.531,0.5326,0.5305,0.5304,0.5303,0.5292,0.5314,0.5314,0.5345,0.5345,0.5346]},{"header":{"parameterUnit":"m.s-1","parameterCategory":1,"la1":30.2991,"la2":30.254,"lo1":-89.0895,"lo2":-89.0444,"dy":0.0017,"dx":0.0017,"nx":28,"ny":28,"refTime":"2025-07-05T03:00:00:Z","depth":0,"parameterNumber":3,"parameterNumberName":"V-component_of_WINDS"},"data":[0,0,0,0,0,0,0,0,0,0,0,0,0,0,0,0,0,0,0,0,0,0,0,0,0,0,0,0,0,0,0,0,0,0,0,0,0,0,0,0,0,0,0,0,0,0,0,0,0,0,0,0,0,0,0,0,0,0,4.3615,4.3615,0,4.3563,4.3562,4.3561,4.3467,4.3465,4.3464,4.3462,4.341,4.3411,4.3411,0,0,0,0,0,0,0,0,0,0,0,0,0,4.3636,4.3636,4.3615,4.3614,4.3614,4.3563,4.3562,4.3561,4.3467,4.3465,4.3463,4.3461,4.341,4.341,4.3411,0,0,0,0,0,0,0,0,0,0,0,0,0,4.361,4.3636,4.3615,4.3561,4.3555,4.3563,4.3562,4.3561,4.3468,4.3465,4.3463,4.346,4.341,4.341,4.3411,4.3468,0,0,4.3412,4.3413,0,0,0,0,0,0,0,0,4.3611,4.3609,4.3569,4.3565,4.3559,4.3519,4.355,4.353,4.3469,4.3501,4.3462,4.3459,4.3449,4.3446,4.3442,4.3465,4.3463,4.3412,4.3413,4.3413,4.3413,0,0,0,0,0,0,0,4.3613,4.3611,4.3594,4.3569,4.3562,4.354,4.3533,4.3546,4.3491,4.3498,4.3491,4.3486,4.3445,4.3442,4.344,4.3462,4.3412,4.3413,4.3413,4.3413,4.3529,4.3532,0,0,0,0,0,0,4.3623,4.3613,4.3596,4.3593,4.3579,4.3541,4.3534,4.3534,4.349,4.3481,4.3489,4.3482,4.3442,4.344,4.3438,4.3501,4.3413,4.3413,4.3414,4.3527,4.353,4.3533,0,0,0,0,0,0,4.3624,4.3622,4.3598,4.3601,4.3596,4.3544,4.3545,4.3535,4.3531,4.3483,4.3473,4.3495,4.344,4.3437,4.3461,4.3498,4.3413,4.3414,4.3523,4.3528,4.3532,4.3629,0,0,0,0,0,0,4.3625,4.3623,4.3644,4.3602,4.3596,4.3622,4.3547,4.3536,4.3532,4.3523,4.3486,4.3478,4.3438,4.3461,4.3461,4.3497,4.3414,4.352,4.3525,4.353,4.3622,4.3636,4.3647,0,0,0,0,0,4.3626,4.3674,4.3645,4.3644,4.3621,4.3624,4.3621,4.3573,4.3535,4.3556,4.3525,4.3479,4.3494,4.3464,4.3464,4.35,4.3517,4.3524,4.353,4.3616,4.3633,4.3647,0,0,0,0,0,0,4.3722,4.3667,4.3635,4.3671,4.3653,4.3608,4.3633,4.3592,4.3585,4.3577,4.3519,4.3511,4.3543,4.3524,4.3491,4.3553,4.3498,4.3505,4.3564,4.3579,4.3592,4.3596,4.3415,0,0,0,0,0,4.3747,4.3754,4.3706,4.3742,4.3734,4.3686,4.3685,4.365,4.3629,4.3621,4.3592,4.3574,4.3574,4.3576,4.3574,4.3619,4.3609,4.3644,4.3657,4.3667,4.3674,4.3696,4.371,4.3554,4.3554,4.3554,0,0,4.38,4.377,4.3778,4.3761,4.3742,4.3751,4.368,4.3692,4.3698,4.3623,4.3643,4.3621,4.3597,4.3632,4.3646,4.3617,4.3715,4.3675,4.3684,4.3685,4.3704,4.3719,4.3732,4.3558,4.3557,4.3557,0,0,4.3899,4.3878,4.3906,4.3889,4.3862,4.3829,4.3836,4.3797,4.3779,4.3799,4.3743,4.3749,4.3751,4.3736,4.3729,4.3823,4.3781,4.3824,4.3891,4.3913,4.3925,4.3936,4.3969,4.3982,4.3831,4.3831,4.3831,0,4.3968,4.3978,4.3925,4.3941,4.3934,4.3867,4.3894,4.3881,4.3855,4.3853,4.3821,4.3822,4.3801,4.3831,4.3854,4.385,4.3856,4.3828,4.3928,4.3938,4.3947,4.3978,4.3991,4.3837,4.3836,4.3835,4.3835,0,4.4064,4.4071,4.4097,4.4073,4.407,4.4092,4.4043,4.4046,4.4011,4.3982,4.4002,4.3975,4.3966,4.397,4.3936,4.3995,4.3978,4.3938,4.3882,4.3968,4.3997,4.4008,4.3844,4.3842,4.3841,4.3839,0,0,4.4222,4.4168,4.4179,4.4167,4.4132,4.4137,4.4156,4.4147,4.415,4.4135,4.4149,4.4153,4.4115,4.4107,4.4071,4.4091,4.4167,4.4048,4.4046,4.4071,4.4229,4.426,4.4274,4.4138,4.414,4.4142,4.4231,0,4.4314,4.4342,4.4295,4.4335,4.4341,4.4277,4.4293,4.4274,4.4247,4.4249,4.422,4.4223,4.4173,4.4168,4.4184,4.4154,4.4198,4.4147,4.4151,4.4152,4.4159,4.4289,4.4321,4.4407,4.4242,4.4244,4.4245,0,4.4425,4.4414,4.4454,4.4417,4.4418,4.4433,4.4421,4.4423,4.44,4.4379,4.4371,4.4328,4.4344,4.429,4.4311,4.4278,4.4277,4.4262,4.4264,4.4263,4.4204,4.4291,4.4433,4.4446,4.4262,4.4261,4.4259,0,4.4536,4.4532,4.4555,4.4547,4.4504,4.4517,4.4499,4.4474,4.4471,4.446,4.4458,4.4449,4.4445,4.4439,4.4396,4.436,4.4422,4.4365,4.4405,4.4407,4.4421,4.4421,4.4565,4.4421,4.4421,4.4421,4.4421,0,4.4644,4.4671,4.4604,4.4619,4.4647,4.4593,4.4623,4.4599,4.4577,4.4586,4.453,4.454,4.4481,4.4485,4.4451,4.4473,4.4472,4.4456,4.4446,4.446,4.4463,4.4459,4.4452,4.4424,4.4423,4.4423,4.4422,0,4.4773,4.4729,4.475,4.4708,4.4698,4.4721,4.4684,4.4696,4.4666,4.4678,4.4677,4.463,4.4631,4.4586,4.4579,4.4556,4.4593,4.4573,4.4601,4.4595,4.4638,4.4634,4.4784,4.4801,4.4647,4.4649,4.465,0,4.4844,4.4863,4.4822,4.4824,4.4809,4.4813,4.4809,4.4758,4.4756,4.4732,4.4747,4.4743,4.4737,4.4742,4.4707,4.4701,4.468,4.4733,4.4679,4.4692,4.468,4.468,4.4681,4.4744,4.4746,4.4748,4.4749,0,4.4975,4.4952,4.4949,4.4939,4.4937,4.4926,4.4912,4.4917,4.486,4.4862,4.4862,4.4857,4.4849,4.4846,4.4834,4.4816,4.4774,4.4767,4.4775,4.479,4.4806,4.4798,4.4632,4.4763,4.4762,4.4761,4.476,4.476,4.5077,4.509,4.5064,4.5063,4.5047,4.5035,4.5044,4.5014,4.5013,4.5002,4.4971,4.4977,4.4953,4.4931,4.4918,4.4921,4.4895,4.4908,4.4911,4.4915,4.4923,4.4805,4.4919,4.4918,4.4918,4.4917,4.4917,0,4.5204,4.5184,4.5183,4.5165,4.5165,4.5124,4.5106,4.5108,4.5114,4.5095,4.509,4.5091,4.5087,4.5052,4.5045,4.5055,4.5035,4.5054,4.5053,4.505,4.4947,4.494,4.507,4.507,4.507,4.507,4.507,4.507,4.5271,4.5292,4.5267,4.528,4.5259,4.5263,4.5257,4.5246,4.5231,4.5233,4.523,4.5207,4.5182,4.5172,4.5168,4.5157,4.5157,4.5183,4.5167,4.5072,4.5057,4.5043,4.5036,4.5184,4.5184,4.5268,4.5269,4.527]}]]